Weather Roundup
Issued by NWS Chicago, IL

Home | Current Version | Previous Version | Graphics & Text | Print | Product List | Glossary On
Versions: 1 2 3 4 5 6 7 8 9 10 11 12 13 14 15 16 17 18 19 20 21 22 23 24 25 26 27 28 29 30 31 32 33 34 35 36 37 38 39 40 41 42 43 44 45 46 47 48 49 50
000
NZUS59 KLOT 221509
HRRLOT

CHICAGO AREA WEATHER ROUNDUP
NATIONAL WEATHER SERVICE CHICAGO/ROMEOVILLE IL
1000 AM CDT SUN OCT 22 2017

NOTE: "FAIR" INDICATES FEW OR NO CLOUDS BELOW 12,000 FEET WITH NO
SIGNIFICANT WEATHER AND/OR OBSTRUCTIONS TO VISIBILITY.

* THESE STATIONS ARE NOT UNDER NWS QUALITY CONTROL. THEY ALSO MAY NOT
  REPORT WEATHER SUCH AS PRECIPITATION OR FOG.

ILZ005-006-012>014-019>023-221600-
NORTHEAST ILLINOIS

CITY           SKY/WX    TMP DP  RH WIND       PRES   REMARKS
OHARE          CLOUDY    67  59  75 S14G24    29.94S
MIDWAY         CLOUDY    69  59  70 S17G26    29.95S
AURORA         CLOUDY    65  60  84 S7        29.95S
LANSING*       CLOUDY    66  59  77 S17       29.98S
JOLIET*        CLOUDY    69  62  78 S17G23    29.95S
WAUKEGAN       LGT RAIN  66  60  81 S16       29.94R
DUPAGE AIRPORT LGT RAIN  64  61  90 S6        29.94S
WHEELING       LGT RAIN  66  63  90 S9        29.95S
KANKAKEE*      CLOUDY    69  59  70 S17G25    29.99S
MORRIS*        CLOUDY    67  60  77 S16G24    29.93S
LEWIS AIRPORT* CLOUDY    67  60  77 S18       29.95S
NORTHERLY ISL    N/A     68  56  65 S14         N/A
$$

WIZ051-052-058>065-066-070>072-221600-
SOUTHEAST WISCONSIN

CITY           SKY/WX    TMP DP  RH WIND       PRES   REMARKS
MILWAUKEE      CLOUDY    67  60  78 S13       29.93R
KENOSHA*       CLOUDY    67  58  72 S12       29.93S
RACINE*        CLOUDY    64  57  78 S10       29.94S
BURLINGTON     RAIN      63  63 100 S8        29.92R
WAUKESHA       RAIN      64  57  77 S13G23    29.95R FOG
WEST BEND      CLOUDY    64  61  88 S8        29.90S
$$

INZ001>003-010>013-019-020-221600-
NORTHWEST INDIANA

CITY           SKY/WX    TMP DP  RH WIND       PRES   REMARKS
GARY*          PTSUNNY   70  55  60 S14G26    29.98S
MICHIGAN CITY* NOT AVBL
RENSSELAER*    NOT AVBL
VALPARAISO     MOSUNNY   69  57  65 S18G25    30.01F
$$

LMZ740>746-221600-
SOUTHERN LAKE MICHIGAN

STATION/POSITION TIME  SKY/WX   TEMP WIND        PRES    VSBY
                                AIR  DIR/SP/G
                 (UTC)          (F)  (DEG/KT/KT) (MB)    (MI)
HARRISON CRIB    1440            66  190/ 24/ 25   N/A
BURNHAM HARBOR   1500            68  160/  9/ 21   N/A
CALUMET HARBOR   1448            67  170/ 17/ 24 1013.9S
BURNS HARBOR     1440            68  180/ 17/ 27 1015.2F
MICHIGAN CITY    1440            66  160/ 16/ 21   N/A
$$

ABBREVIATIONS USED IN REMARKS
   TC - TEMPERATURE IN CELSIUS
  WCI - WIND CHILL INDEX
   HX - HEAT INDEX
  VSB - VISIBILITY
$$



USA.gov is the U.S. government's official web portal to all federal, state and local government web resources and services.